Location: Unspecified
(0.0000°N, 0.0000°E)
Time: 13:12:01
(UTC+00:00)

Tandem-X - Visible Passes

Search period start: 22 October 2021 00:00
Search period end: 01 November 2021 00:00
Orbit: 507 x 510 km, 97.4° (Epoch: 18 October)

Date Brightness Start Highest point End Pass type
(mag) Time Alt. Az. Time Alt. Az. Time Alt. Az.
22 Oct 8.7 05:12:56 10° ENE 05:15:08 15° ESE 05:17:21 10° SE visible
22 Oct 8.2 18:37:35 10° SSW 18:40:20 20° WSW 18:43:04 10° NW visible
23 Oct 7.0 18:19:52 10° S 18:23:18 36° WSW 18:26:45 10° NNW visible
24 Oct 5.5 18:02:35 10° S 18:06:17 74° WSW 18:09:58 10° NNW visible
27 Oct 8.6 18:46:44 10° SW 18:48:51 15° WSW 18:50:57 10° WNW visible
28 Oct 9.2 05:05:30 10° E 05:06:39 11° ESE 05:07:47 10° ESE visible
28 Oct 7.7 18:28:40 10° SSW 18:31:50 27° WSW 18:34:59 10° NW visible
29 Oct 6.2 18:11:11 10° S 18:14:48 51° WSW 18:18:24 10° NNW visible
